Location: El Carrer d�Abaix
(41.5797°N, 2.1791°E)
Time: 00:48:20
(UTC+00:00)

STARLINK-1378 - Pass Details

Date: 05 October 2020
Orbit: 548 x 551 km, 53.0° (Epoch: 27 October)

Event Time Altitude Azimuth Distance (km) Brightness Sun altitude
Exits shadow 04:34:17 12° 319° (NW) 1,695 5.8 -15.5°
Maximum altitude 04:36:31 17° 355° (N) 1,428 5.7 -15.0°
Drops below altitude 10° 04:39:18 10° 37° (NE) 1,828 6.9 -14.5°
Sets 04:42:12 0° 58° (ENE) 2,723 8.4 -14.0°
